Location: Big Meadow
(36.7100°N, 118.8650°W)
Time: 19:39:42
(UTC-08:00)

Daily predictions for brighter satellites

Satellite Brightness Start Highest point End
(mag) Time Altitude Azimuth Time Altitude Azimuth Time Altitude Azimuth
Cosmos 1151 Rocket 3.2 17:31:57 10° N 17:36:07 51° E 17:40:18 10° SSE
Cosmos 371 Rocket 3.8 17:34:14 10° SSW 17:38:59 62° WNW 17:43:46 10° N
Cosmos 1515 Rocket 3.6 17:35:29 10° N 17:39:58 89° ENE 17:44:24 10° S
Cosmos 1455 4.1 17:40:39 10° NE 17:41:46 11° ENE 17:42:52 10° E
Meteor 2-2 Rocket 4.4 17:36:07 10° N 17:41:46 80° W 17:47:25 10° S
SMAP 3.5 17:38:10 10° S 17:42:47 70° WSW 17:47:27 10° NNW
Cosmos 1805 Rocket 4.5 17:40:24 10° SSE 17:44:14 29° E 17:48:04 10° NNE
Cosmos 2278 Rocket 2.2 17:39:04 10° NNW 17:44:42 61° ENE 17:50:18 10° SSE
Cosmos 1726 2.1 17:41:32 10° N 17:45:16 63° E 17:49:01 10° SSE
SKYMED 2 3.7 17:42:37 10° NNE 17:46:53 55° E 17:51:08 10° S
Cosmos 1500 Rocket 4.2 17:46:59 10° SSW 17:51:13 58° W 17:55:32 10° N
Cosmos 372 Rocket 4.0 17:48:53 10° N 17:53:56 59° ENE 17:58:57 10° SSE
Abrixas 3.7 17:53:32 10° W 17:56:13 32° NNW 17:58:45 11° NE
Cosmos 1844 4.5 17:51:56 10° NNW 17:57:36 59° WSW 18:03:16 10° S
Cosmos 540 Rocket 3.9 17:52:59 10° SSW 17:58:07 67° WNW 18:03:17 10° NNE
Cosmos 1340 Rocket 2.7 17:56:56 10° S 18:00:49 63° E 18:04:42 10° NNE
Sich 1 3.9 17:57:39 10° SSE 18:01:28 29° E 18:05:16 10° NNE
Cosmos 1300 2.8 17:57:42 10° N 18:01:32 79° W 18:05:21 10° S
SL-14 R/B 3.6 17:57:49 10° SSW 18:01:43 68° W 18:05:41 10° N
Meteor 1-27 4.3 17:56:52 10° N 18:02:40 67° E 18:08:28 10° SSE
Cosmos 1484 Rocket 2.9 18:00:52 10° S 18:04:47 82° WSW 18:08:47 10° NNW
Cosmos 2058 2.9 18:01:49 10° S 18:05:55 87° W 18:10:02 10° N
Cosmos 1461 2.8 18:02:07 10° SSW 18:06:19 69° ESE 18:10:07 12° NE
Cosmos 2237 Rocket 2.9 18:00:55 10° SW 18:06:25 56° WNW 18:12:00 10° NNE
Cosmos 1633 Rocket 3.8 18:05:11 10° SSE 18:09:01 30° E 18:12:52 10° NNE
SL-16 R/B 2.2 18:07:46 10° S 18:13:22 69° ESE 18:18:59 10° NNE
USA 215 3.7 18:08:57 11° E 18:14:45 41° NE 18:20:48 10° NNW
Cosmos 304 Rocket 3.8 18:12:40 10° SSW 18:17:29 89° W 18:22:19 10° NNE
OTV 4 2.3 18:17:01 10° W 18:19:37 27° SSW 18:22:10 10° SE
Meteor 1-28 Rocket 3.5 18:22:21 10° N 18:26:03 68° WNW 18:29:44 10° SSW
Cosmos 2297 3.7 18:21:47 10° NNW 18:27:29 65° ENE 18:33:09 10° SSE
Cosmos 1356 Rocket 3.2 18:23:34 10° S 18:27:31 68° E 18:31:30 10° NNE
Milstar 3 4.2 18:24:34 10° WSW 18:30:24 30° SSW 18:36:36 10° SE
COSMO-SKYMED 1 3.9 18:30:48 10° N 18:34:51 39° WNW 18:38:52 10° SW
Cosmos 1707 Rocket 3.4 18:31:02 10° N 18:35:23 74° E 18:39:43 10° SSE
Cosmos 1900 4.3 18:31:04 10° NNW 18:35:59 61° ENE 18:40:57 10° SE
Cosmos 1184 Rocket 2.6 18:35:44 10° S 18:39:04 71° E 18:40:05 41° NNE
Resurs 01 Rocket 2.1 18:41:22 36° ENE 18:41:22 36° ENE 18:45:07 10° N
Tiangong 1 3.2 18:39:01 10° S 18:40:17 16° SSE 18:40:17 16° SSE
Aureole 1 Rocket 3.7 18:36:55 10° S 18:41:53 62° ESE 18:48:30 10° NNE
Spot 2 Rocket 3.8 18:38:02 10° SE 18:42:42 40° ENE 18:47:24 10° N
Lacrosse 5 rocket 1.6 18:39:15 10° NW 18:43:03 62° SW 18:46:42 12° SSE
Cosmos 1666 Rocket 3.5 18:38:58 10° S 18:43:18 84° W 18:47:41 10° N
FENGYUN 3A 3.7 18:44:09 10° SSE 18:49:17 51° ENE 18:54:30 10° N
METEOR-M 4.3 18:48:53 10° S 18:54:13 74° WSW 18:59:35 10° NNW
Cosmos 1933 Rocket 4.4 18:50:41 10° SSE 18:53:28 33° SE 18:53:28 33° SE
USA 229 DEB 3.6 18:48:56 10° SSW 18:55:45 77° ESE 18:59:43 28° NE
USA 229 3.6 18:49:02 10° SSW 18:55:51 76° ESE 18:59:46 28° NE
Iridium 4 Rocket 2.9 18:53:11 10° S 18:57:46 73° E 18:59:35 34° NNE
ALOS 2.1 18:57:21 10° SSE 19:01:59 70° ENE 19:06:39 10° N
Cosmos 1626 3.7 18:59:07 10° SSW 19:02:35 35° W 19:06:03 10° NNW
Cosmos 923 Rocket 3.8 18:58:53 10° S 19:04:04 70° ESE 19:05:14 52° NE
BREEZE-M DEB (TANK) 4.2 19:04:10 10° SSW 19:08:18 44° ESE 19:09:57 40° E
SJ-6B 3.8 19:04:27 10° S 19:08:21 48° W 19:12:21 10° NNW
FengYun 1-2 T 4.1 19:03:25 10° SSE 19:08:59 83° ENE 19:14:32 10° NNW
Cosmos 1680 Rocket 3.5 19:06:12 10° S 19:10:57 60° SE 19:10:57 60° SE
Cosmos 292 Rocket 3.7 19:09:04 10° S 19:13:25 71° SSE 19:13:25 71° SSE
Cosmos 1470 Rocket 4.0 19:11:49 10° S 19:15:07 51° S 19:15:07 51° S
Cosmos 2242 Rocket 3.7 19:12:42 10° N 19:17:07 73° W 19:21:33 10° S
Cosmos 1455 3.5 19:14:05 10° NNW 19:17:38 39° W 19:21:12 10° SSW
Cosmos 1603 3.5 19:12:17 10° SSW 19:17:54 86° ESE 19:18:57 61° NNE
Lacrosse 4 Rocket 3.8 19:24:20 10° NNW 19:24:58 14° NNW 19:24:58 14° NNW
Cosmos 2026 Rocket 3.8 19:26:01 10° S 19:32:14 81° E 19:32:29 79° ENE
NOSS 3-1 (C) 4.3 19:42:51 10° SSW 19:46:00 35° SSW 19:46:00 35° SSW
H-2A ROCKET BODY 3.3 19:37:27 10° W 19:51:39 43° SSW 19:51:58 43° S
USA 215 3.7 19:56:21 50° SSW 19:57:33 57° SW 20:04:00 10° NW
Resurs 01 Rocket 4.4 20:18:55 16° WNW 20:18:55 16° WNW 20:20:34 10° NW
